Weather History for KCSM - April, 2014

Change the Weather History Date:

Thursday, April 3, 2014

  Actual Average Record
Temperature  
Mean Temperature 58 °F -  
Max Temperature 75 °F 64 °F 98 °F (2011)
Min Temperature 42 °F 42 °F 33 °F (2002)
Degree Days  
Heating Degree Days 7    
Growing Degree Days 8 (Base 50)    
Moisture  
Dew Point 47 °F    
Average Humidity 73    
Maximum Humidity 100    
Minimum Humidity 13    
Precipitation  
Precipitation 0.00 in - - ()
Sea Level Pressure  
Sea Level Pressure 29.68 in    
Wind  
Wind Speed 17 mph (West)    
Max Wind Speed 40 mph    
Max Gust Speed 47 mph    
Visibility 7 miles    
Events Fog    
Averages and records for this station are not official NWS values.
T = Trace of Precipitation, MM = Missing Value Source: NWS Daily Summary

Daily Weather History Graph

Daily Weather History Graph

Search for Another Location

Airport or City:

Trip Planner

Search our weather history database for the weather conditions in past years. The results will help you decide how hot, cold, wet, or windy it might be!

Date:

Astronomy

Apr. 03, 2014 Rise Set
Actual Time 7:20 AM CDT 7:59 PM CDT
Civil Twilight 6:54 AM CDT 8:25 PM CDT
Nautical Twilight 6:24 AM CDT 8:55 PM CDT
Astronomical Twilight 5:53 AM CDT 9:26 PM CDT
Moon 9:58 AM CDT (4/3) No Moon Set
Length of Visible Light 13h 30m
Length of Day
12h 39m
Waxing Crescent, 17% of the Moon is Illuminated
Apr 3
Waxing Crescent
Apr 7
First Quarter
Apr 15
Full
Apr 22
Last Quarter
Apr 29
New

Hourly Weather History & Observations

Time (CDT) Temp. Windchill Dew Point Humidity Pressure Visibility Wind Dir Wind Speed Gust Speed Precip Events Conditions
12:53 AM 68.0 °F - 63.0 °F 84% 29.55 in 9.0 mi South 19.6 mph - N/A   Clear
1:53 AM 66.9 °F - 63.0 °F 87% 29.53 in 8.0 mi South 17.3 mph - N/A   Clear
2:53 AM 66.0 °F - 63.0 °F 90% 29.53 in 7.0 mi South 18.4 mph - N/A   Clear
3:53 AM 64.0 °F - 62.1 °F 93% 29.54 in 7.0 mi South 15.0 mph - N/A   Clear
4:53 AM 64.0 °F - 62.1 °F 93% 29.53 in 7.0 mi SSW 13.8 mph - N/A   Clear
5:53 AM 62.1 °F - 61.0 °F 96% 29.54 in 6.0 mi SSW 12.7 mph - N/A   Clear
6:53 AM 61.0 °F - 60.1 °F 97% 29.56 in 4.0 mi South 10.4 mph - N/A   Clear
7:08 AM 60.8 °F - 59.0 °F 94% 29.62 in 1.8 mi SSW 12.7 mph - N/A   Partly Cloudy
7:22 AM 60.8 °F - 59.0 °F 94% 29.63 in 3.0 mi SSW 12.7 mph - N/A   Partly Cloudy
7:30 AM 60.8 °F - 59.0 °F 94% 29.63 in 2.5 mi SSW 12.7 mph - N/A   Partly Cloudy
7:37 AM 59.0 °F - 57.2 °F 94% 29.64 in 1.0 mi SSW 10.4 mph - N/A   Mist
7:39 AM 59.0 °F - 57.2 °F 94% 29.64 in 0.5 mi SW 10.4 mph - N/A Fog Fog
7:50 AM 59.0 °F - 57.2 °F 94% 29.66 in 1.2 mi SW 11.5 mph - N/A   Scattered Clouds
7:53 AM 59.0 °F - 57.9 °F 96% 29.60 in 1.2 mi SW 10.4 mph - N/A   Scattered Clouds
7:56 AM 59.0 °F - 57.2 °F 94% 29.66 in 0.8 mi WSW 10.4 mph - N/A   Mist
8:02 AM 57.2 °F - 57.2 °F 100% 29.68 in 1.0 mi NW 18.4 mph 23.0 mph N/A   Mostly Cloudy
8:05 AM 53.6 °F - 51.8 °F 94% 29.69 in 2.5 mi NNW 20.7 mph 28.8 mph N/A   Mostly Cloudy
8:12 AM 48.2 °F - 46.4 °F 93% 29.70 in 6.0 mi NNW 19.6 mph 29.9 mph N/A   Mostly Cloudy
8:30 AM 48.2 °F - 46.4 °F 93% 29.70 in 5.0 mi NNW 16.1 mph - N/A   Scattered Clouds
8:35 AM 48.2 °F - 44.6 °F 87% 29.70 in 5.0 mi NNW 18.4 mph 25.3 mph N/A   Mostly Cloudy
8:48 AM 46.4 °F 38.7 °F 44.6 °F 93% 29.71 in 6.0 mi NNW 20.7 mph - N/A   Mostly Cloudy
8:53 AM 46.9 °F - 45.0 °F 93% 29.68 in 6.0 mi NNW 20.7 mph - N/A   Mostly Cloudy
9:51 AM 48.2 °F - 44.6 °F 87% 29.72 in 10.0 mi NNW 20.7 mph 29.9 mph N/A   Scattered Clouds
9:53 AM 50.0 °F - 44.1 °F 80% 29.68 in 10.0 mi NNW 24.2 mph 29.9 mph N/A   Partly Cloudy
10:53 AM 54.0 °F - 42.1 °F 64% 29.68 in 10.0 mi NNW 21.9 mph - N/A   Clear
11:53 AM 60.1 °F - 42.1 °F 51% 29.69 in 10.0 mi NNW 13.8 mph 21.9 mph N/A   Clear
12:53 PM 63.0 °F - 39.9 °F 43% 29.69 in 10.0 mi NNW 9.2 mph 23.0 mph N/A   Clear
1:53 PM 68.0 °F - 39.9 °F 36% 29.69 in 10.0 mi WNW 4.6 mph - N/A   Clear
2:53 PM 71.1 °F - 36.0 °F 28% 29.67 in 10.0 mi West 10.4 mph - N/A   Clear
3:53 PM 73.0 °F - 30.9 °F 21% 29.66 in 10.0 mi West 17.3 mph 21.9 mph N/A   Clear
4:53 PM 72.0 °F - 33.1 °F 24% 29.64 in 10.0 mi SW 11.5 mph - N/A   Partly Cloudy
5:27 PM 73.4 °F - 19.4 °F 13% 29.69 in 8.0 mi West 26.5 mph 42.6 mph N/A   Partly Cloudy
5:44 PM 66.2 °F - 35.6 °F 32% 29.72 in 10.0 mi NNW 18.4 mph 32.2 mph N/A   Clear
5:53 PM 66.0 °F - 37.0 °F 34% 29.68 in 10.0 mi NNW 20.7 mph - N/A   Clear
6:53 PM 60.1 °F - 35.1 °F 39% 29.76 in 10.0 mi NNW 40.3 mph 47.2 mph N/A   Clear
7:53 PM 52.0 °F - 34.0 °F 50% 29.86 in 10.0 mi NNW 33.4 mph 44.9 mph N/A   Clear
8:53 PM 48.9 °F - 32.0 °F 52% 29.93 in 10.0 mi NNW 33.4 mph 46.0 mph N/A   Clear
10:53 PM 43.0 °F 34.5 °F 30.9 °F 62% 30.02 in 10.0 mi NNW 19.6 mph 29.9 mph N/A   Clear
11:53 PM 42.1 °F 33.1 °F 33.1 °F 70% 30.04 in 10.0 mi NNW 20.7 mph 29.9 mph N/A   Clear